Location: Unspecified
(0.0000°N, 0.0000°E)
Time: 16:06:22
(UTC+00:00)

S-56A Canister/Altair - Pass Details

Date: 16 December 2018
Orbit: 633 x 2500 km, 38.9° (Epoch: 21 March)

Event Time Altitude Azimuth Distance (km) Brightness Sun altitude
Rises 21:52:38 0° 210° (SSW) 2,936 - -52.1°
Reaches altitude 10° 21:55:00 10° 199° (SSW) 2,087 - -52.5°
Maximum altitude 21:59:11 31° 135° (SE) 1,296 - -53.3°
Drops below altitude 10° 22:04:25 10° 74° (ENE) 2,646 - -54.3°
Sets 22:07:47 0° 64° (ENE) 3,876 - -54.9°
